[[{"header":{"parameterUnit":"m.s-1","parameterCategory":1,"la1":30.2991,"la2":30.254,"lo1":-89.0895,"lo2":-89.0444,"dy":0.0017,"dx":0.0017,"nx":28,"ny":28,"refTime":"2023-10-03T21:00:00:Z","depth":0,"parameterNumber":2,"parameterNumberName":"U-component_of_WINDS"},"data":[0,0,0,0,0,0,0,0,0,0,0,0,0,0,0,0,0,0,0,0,0,0,0,0,0,0,0,0,0,0,0,0,0,0,0,0,0,0,0,0,0,0,0,0,0,0,0,0,0,0,0,0,0,0,0,0,0,0,-4.7111,-4.7113,0,-4.7234,-4.7235,-4.7236,-4.7148,-4.7144,-4.7141,-4.7137,-4.7259,-4.7265,-4.7272,0,0,0,0,0,0,0,0,0,0,0,0,0,-4.6799,-4.6805,-4.7111,-4.7113,-4.7114,-4.7234,-4.7235,-4.7237,-4.7149,-4.7144,-4.714,-4.7135,-4.7256,-4.7264,-4.7273,0,0,0,0,0,0,0,0,0,0,0,0,0,-4.6929,-4.6807,-4.7111,-4.7085,-4.7084,-4.7233,-4.7235,-4.7237,-4.715,-4.7144,-4.7138,-4.7133,-4.7254,-4.7264,-4.7274,-4.7454,0,0,-4.7305,-4.731,0,0,0,0,0,0,0,0,-4.6922,-4.6941,-4.7087,-4.7087,-4.7086,-4.717,-4.7169,-4.731,-4.7151,-4.7125,-4.7137,-4.713,-4.7234,-4.7245,-4.7281,-4.746,-4.7465,-4.7306,-4.7312,-4.7317,-4.732,0,0,0,0,0,0,0,-4.6913,-4.6935,-4.716,-4.709,-4.7089,-4.7066,-4.7078,-4.7196,-4.721,-4.7127,-4.7121,-4.7136,-4.7232,-4.7271,-4.7283,-4.7467,-4.7306,-4.7315,-4.7321,-4.7325,-4.7799,-4.7805,0,0,0,0,0,0,-4.6907,-4.6928,-4.7156,-4.7163,-4.6988,-4.7077,-4.709,-4.7149,-4.7209,-4.7212,-4.7141,-4.7132,-4.7256,-4.7271,-4.7287,-4.7501,-4.7317,-4.7326,-4.7332,-4.7793,-4.7801,-4.7808,0,0,0,0,0,0,-4.69,-4.6928,-4.7151,-4.7044,-4.7071,-4.7088,-4.7155,-4.7154,-4.7193,-4.722,-4.7222,-4.7179,-4.7252,-4.7272,-4.7413,-4.7504,-4.7331,-4.734,-4.7785,-4.7795,-4.7804,-4.7931,0,0,0,0,0,0,-4.6892,-4.6926,-4.6995,-4.7046,-4.7077,-4.7276,-4.7161,-4.7161,-4.7212,-4.72,-4.7255,-4.7259,-4.7249,-4.7398,-4.7424,-4.7515,-4.7348,-4.7777,-4.779,-4.7801,-4.7918,-4.7943,-4.7965,0,0,0,0,0,-4.6881,-4.7025,-4.6999,-4.7027,-4.7164,-4.7282,-4.7299,-4.7286,-4.7219,-4.7288,-4.7306,-4.7257,-4.7491,-4.7414,-4.7441,-4.7537,-4.7771,-4.7786,-4.78,-4.7908,-4.7939,-4.7964,0,0,0,0,0,0,-4.6983,-4.7032,-4.7003,-4.7169,-4.7222,-4.7267,-4.7353,-4.7319,-4.7391,-4.7377,-4.7357,-4.737,-4.7518,-4.7542,-4.7455,-4.7714,-4.762,-4.7641,-4.7693,-4.7722,-4.7745,-4.7734,-4.7357,0,0,0,0,0,-4.7025,-4.7118,-4.7155,-4.7297,-4.7326,-4.7336,-4.7386,-4.7372,-4.7426,-4.7447,-4.7475,-4.7528,-4.7613,-4.7669,-4.7749,-4.7923,-4.7932,-4.8002,-4.8025,-4.8044,-4.8061,-4.8154,-4.8185,-4.7855,-4.7855,-4.7855,0,0,-4.7112,-4.715,-4.721,-4.7319,-4.7358,-4.7454,-4.7355,-4.746,-4.753,-4.7463,-4.7597,-4.762,-4.7678,-4.7836,-4.7906,-4.786,-4.8155,-4.8063,-4.8078,-4.8084,-4.8172,-4.8203,-4.8231,-4.7865,-4.7863,-4.7862,0,0,-4.7319,-4.7359,-4.7481,-4.7523,-4.7585,-4.7591,-4.762,-4.7671,-4.7684,-4.7819,-4.7771,-4.7853,-4.8001,-4.8044,-4.8085,-4.8311,-4.8268,-4.8338,-4.8457,-4.8548,-4.8573,-4.8596,-4.8675,-4.8703,-4.8355,-4.8356,-4.8356,0,-4.7419,-4.7561,-4.7548,-4.7657,-4.7706,-4.7652,-4.7775,-4.7816,-4.7901,-4.7935,-4.7883,-4.8067,-4.8102,-4.8268,-4.8324,-4.836,-4.8392,-4.8329,-4.8571,-4.8594,-4.8615,-4.8689,-4.8719,-4.8363,-4.8362,-4.8362,-4.8361,0,-4.768,-4.778,-4.7872,-4.7956,-4.8015,-4.8131,-4.8134,-4.8196,-4.8177,-4.8188,-4.8326,-4.8368,-4.8454,-4.8494,-4.8476,-4.8658,-4.8627,-4.8574,-4.8478,-4.8655,-4.8724,-4.8753,-4.8375,-4.8372,-4.8369,-4.8367,0,0,-4.7952,-4.8029,-4.8062,-4.8099,-4.8165,-4.8241,-4.8354,-4.844,-4.8493,-4.8554,-4.8647,-4.8774,-4.8725,-4.8772,-4.876,-4.8839,-4.9013,-4.8776,-4.8777,-4.8816,-4.9214,-4.9252,-4.9285,-4.8987,-4.8992,-4.8997,-4.9209,0,-4.816,-4.8358,-4.835,-4.8534,-4.8625,-4.8577,-4.8675,-4.8725,-4.8739,-4.8818,-4.8833,-4.8923,-4.8853,-4.8881,-4.8958,-4.8976,-4.9092,-4.8961,-4.9071,-4.9075,-4.9055,-4.9322,-4.9362,-4.956,-4.9236,-4.9241,-4.9244,0,-4.8429,-4.85,-4.8694,-4.8746,-4.8784,-4.8872,-4.8951,-4.9027,-4.9083,-4.9088,-4.9142,-4.9116,-4.923,-4.9134,-4.9289,-4.92,-4.9245,-4.9261,-4.9269,-4.9276,-4.9168,-4.9334,-4.9623,-4.9652,-4.9287,-4.9284,-4.9281,0,-4.8605,-4.8749,-4.8883,-4.8917,-4.8982,-4.9045,-4.9074,-4.9125,-4.9177,-4.9246,-4.928,-4.9361,-4.9405,-4.9468,-4.9464,-4.9396,-4.9622,-4.9526,-4.9627,-4.9627,-4.9674,-4.967,-4.9971,-4.9708,-4.9708,-4.9707,-4.9707,0,-4.8836,-4.8956,-4.8963,-4.9045,-4.9178,-4.9168,-4.9299,-4.9322,-4.9368,-4.9453,-4.9417,-4.9497,-4.9489,-4.9571,-4.9569,-4.9697,-4.9718,-4.9723,-4.9721,-4.9725,-4.9724,-4.9752,-4.9737,-4.9715,-4.9713,-4.9712,-4.971,0,-4.9054,-4.9063,-4.9206,-4.9256,-4.9272,-4.9367,-4.9409,-4.9487,-4.9499,-4.9607,-4.9632,-4.965,-4.9744,-4.9748,-4.9856,-4.9855,-5.001,-4.9994,-4.9991,-4.9987,-5.0087,-5.0076,-5.0414,-5.0457,-5.0168,-5.0171,-5.0173,0,-4.9199,-4.929,-4.9351,-4.9406,-4.944,-4.9529,-4.9583,-4.9577,-4.9634,-4.9705,-4.9774,-4.9865,-4.9937,-5.0089,-5.0111,-5.0193,-5.0177,-5.0289,-5.0188,-5.019,-5.0175,-5.0169,-5.0177,-5.0308,-5.0311,-5.0314,-5.0316,0,-4.9456,-4.9457,-4.9536,-4.9619,-4.9684,-4.9748,-4.9807,-4.9854,-4.9855,-4.9922,-5.0018,-5.0074,-5.0184,-5.0274,-5.0354,-5.0383,-5.035,-5.0348,-5.0375,-5.0379,-5.0372,-5.0375,-5.0042,-5.0339,-5.0337,-5.0335,-5.0334,-5.0333,-4.964,-4.9719,-4.9774,-4.9863,-4.9908,-4.9965,-5.004,-5.0062,-5.0143,-5.0232,-5.0225,-5.0331,-5.0384,-5.0489,-5.0525,-5.0607,-5.0568,-5.0608,-5.0618,-5.0627,-5.0637,-5.0362,-5.0622,-5.0622,-5.0621,-5.062,-5.062,0,-4.9893,-4.9926,-5.001,-5.0094,-5.0165,-5.013,-5.0194,-5.0255,-5.0349,-5.0403,-5.0475,-5.0585,-5.0672,-5.0703,-5.0787,-5.0847,-5.0834,-5.087,-5.0863,-5.087,-5.0668,-5.0635,-5.0879,-5.0879,-5.0879,-5.0879,-5.0879,-5.0879,-5.0033,-5.0163,-5.0171,-5.0323,-5.0355,-5.046,-5.0499,-5.0551,-5.0594,-5.0719,-5.0791,-5.0811,-5.0855,-5.0943,-5.1022,-5.1028,-5.106,-5.1102,-5.1102,-5.0911,-5.0885,-5.086,-5.0828,-5.1109,-5.111,-5.1297,-5.1299,-5.13]},{"header":{"parameterUnit":"m.s-1","parameterCategory":1,"la1":30.2991,"la2":30.254,"lo1":-89.0895,"lo2":-89.0444,"dy":0.0017,"dx":0.0017,"nx":28,"ny":28,"refTime":"2023-10-03T21:00:00:Z","depth":0,"parameterNumber":3,"parameterNumberName":"V-component_of_WINDS"},"data":[0,0,0,0,0,0,0,0,0,0,0,0,0,0,0,0,0,0,0,0,0,0,0,0,0,0,0,0,0,0,0,0,0,0,0,0,0,0,0,0,0,0,0,0,0,0,0,0,0,0,0,0,0,0,0,0,0,0,1.7309,1.7311,0,1.7421,1.7422,1.7423,1.7464,1.7464,1.7464,1.7463,1.7573,1.7576,1.758,0,0,0,0,0,0,0,0,0,0,0,0,0,1.7131,1.7134,1.7309,1.7311,1.7312,1.742,1.7422,1.7423,1.7465,1.7464,1.7464,1.7463,1.7572,1.7576,1.758,0,0,0,0,0,0,0,0,0,0,0,0,0,1.7221,1.7135,1.7309,1.7346,1.735,1.742,1.7422,1.7424,1.7465,1.7464,1.7464,1.7463,1.7571,1.7576,1.758,1.7621,0,0,1.7595,1.7597,0,0,0,0,0,0,0,0,1.7216,1.7228,1.7339,1.7343,1.7349,1.7428,1.7399,1.749,1.7465,1.7421,1.7463,1.7463,1.7525,1.7534,1.7556,1.7626,1.763,1.7596,1.7599,1.7601,1.7602,0,0,0,0,0,0,0,1.721,1.7223,1.7353,1.7341,1.7346,1.7356,1.7368,1.7416,1.7474,1.7425,1.7428,1.7441,1.7528,1.7551,1.7558,1.7632,1.7596,1.76,1.7603,1.7605,1.7742,1.7743,0,0,0,0,0,0,1.7198,1.7218,1.735,1.7357,1.728,1.736,1.7373,1.7403,1.7474,1.7485,1.7441,1.7442,1.7543,1.7553,1.7562,1.7615,1.7601,1.7605,1.7608,1.7742,1.7743,1.7743,0,0,0,0,0,0,1.7194,1.7209,1.7345,1.7288,1.7306,1.7363,1.7396,1.7406,1.7429,1.7487,1.7497,1.7454,1.7543,1.7556,1.7607,1.7619,1.7607,1.7612,1.7741,1.7742,1.7743,1.772,0,0,0,0,0,0,1.7189,1.7208,1.7224,1.7288,1.7309,1.7388,1.7397,1.7408,1.7438,1.744,1.7502,1.7511,1.7543,1.7599,1.7611,1.7626,1.7616,1.774,1.7741,1.7743,1.772,1.772,1.772,0,0,0,0,0,1.7182,1.7212,1.7224,1.724,1.7331,1.7389,1.74,1.7438,1.7438,1.7455,1.7492,1.7509,1.7616,1.7604,1.7618,1.7634,1.7739,1.7741,1.7743,1.7719,1.772,1.772,0,0,0,0,0,0,1.7145,1.7221,1.7236,1.7287,1.7331,1.7395,1.7417,1.7437,1.7481,1.7481,1.7525,1.7538,1.7586,1.7615,1.76,1.7678,1.7679,1.7683,1.7656,1.7657,1.7658,1.7649,1.762,0,0,0,0,0,1.7143,1.7185,1.7248,1.7288,1.7309,1.736,1.7386,1.7411,1.7458,1.7477,1.7518,1.7562,1.7606,1.7633,1.7676,1.7725,1.7739,1.7743,1.7743,1.7743,1.7746,1.7775,1.7777,1.7749,1.7749,1.7749,0,0,1.7139,1.7186,1.7209,1.7282,1.7319,1.736,1.7375,1.7418,1.7449,1.7483,1.7534,1.7566,1.7618,1.7668,1.7692,1.7694,1.7758,1.7745,1.7745,1.7748,1.7777,1.7779,1.7782,1.775,1.775,1.775,0,0,1.7153,1.7193,1.723,1.7268,1.7325,1.7359,1.7368,1.743,1.7453,1.7505,1.7532,1.7569,1.7643,1.768,1.7708,1.7738,1.7755,1.7751,1.7752,1.7779,1.7782,1.7784,1.7795,1.7798,1.7754,1.7754,1.7754,0,1.7141,1.7205,1.7247,1.7289,1.732,1.7355,1.7394,1.7428,1.7495,1.7516,1.7517,1.7613,1.765,1.7709,1.7717,1.7739,1.775,1.7743,1.7778,1.7781,1.7783,1.7794,1.7798,1.7753,1.7753,1.7753,1.7753,0,1.7187,1.7232,1.7255,1.7321,1.7355,1.7395,1.7442,1.7472,1.7495,1.7528,1.7581,1.7628,1.7682,1.7698,1.772,1.7761,1.7761,1.777,1.7772,1.7785,1.7795,1.78,1.7752,1.7752,1.7752,1.7753,0,0,1.7179,1.727,1.7278,1.7309,1.7375,1.741,1.7452,1.7506,1.7531,1.7576,1.7612,1.7676,1.7685,1.7717,1.7744,1.7768,1.779,1.7774,1.7776,1.7775,1.7838,1.783,1.7834,1.7802,1.7803,1.7804,1.7834,0,1.7202,1.7279,1.7319,1.7379,1.742,1.7455,1.7492,1.7536,1.7569,1.7609,1.7644,1.7689,1.7698,1.7718,1.7743,1.7781,1.7803,1.778,1.7835,1.7837,1.782,1.784,1.7832,1.7858,1.7838,1.7839,1.784,0,1.7238,1.7286,1.735,1.7413,1.7432,1.7464,1.7518,1.7556,1.7607,1.7629,1.7666,1.7693,1.7738,1.7738,1.7801,1.7785,1.781,1.7832,1.7834,1.784,1.7838,1.7846,1.7867,1.787,1.7847,1.7846,1.7846,0,1.7226,1.7306,1.7355,1.7381,1.7455,1.7477,1.7509,1.756,1.7591,1.7638,1.7658,1.7709,1.7737,1.7776,1.7815,1.7812,1.7874,1.7877,1.7894,1.7893,1.7904,1.7903,1.7929,1.7921,1.7921,1.7921,1.7921,0,1.7247,1.7285,1.7351,1.7381,1.7425,1.747,1.7512,1.7547,1.7592,1.763,1.7663,1.7697,1.7748,1.7788,1.782,1.7867,1.7879,1.7898,1.7906,1.7895,1.7892,1.7911,1.791,1.7922,1.7922,1.7922,1.7922,0,1.724,1.7286,1.7342,1.7409,1.7427,1.7456,1.7513,1.7544,1.7579,1.7626,1.7639,1.7694,1.7744,1.7788,1.7853,1.7874,1.7923,1.7932,1.7905,1.791,1.7923,1.7921,1.7962,1.7969,1.7957,1.7957,1.7957,0,1.725,1.728,1.7351,1.7379,1.7411,1.7456,1.7488,1.7534,1.7566,1.7628,1.7651,1.7703,1.7747,1.7825,1.787,1.792,1.7931,1.7942,1.7939,1.7927,1.7931,1.7929,1.7932,1.7941,1.7941,1.7941,1.7941,0,1.7263,1.7284,1.733,1.7384,1.7422,1.7466,1.7511,1.7532,1.7587,1.7621,1.7673,1.7707,1.7775,1.7826,1.7882,1.7915,1.7937,1.7942,1.7949,1.7937,1.792,1.7929,1.7904,1.7941,1.7941,1.7941,1.7941,1.7941,1.7265,1.7294,1.7349,1.7398,1.7438,1.748,1.7512,1.7552,1.7597,1.7656,1.7681,1.7733,1.7785,1.7863,1.7895,1.7937,1.7941,1.795,1.7952,1.7954,1.7952,1.7914,1.7947,1.7948,1.7948,1.7948,1.7948,0,1.7279,1.7317,1.7362,1.7425,1.7465,1.7484,1.7536,1.7567,1.7613,1.766,1.7704,1.7764,1.7815,1.7865,1.7918,1.7942,1.7954,1.7954,1.7952,1.796,1.7945,1.7934,1.7944,1.7944,1.7944,1.7944,1.7944,1.7944,1.7291,1.7342,1.737,1.7441,1.7478,1.7531,1.7558,1.7597,1.7635,1.7701,1.7744,1.7777,1.7825,1.7883,1.793,1.7944,1.7962,1.7959,1.7975,1.7961,1.7961,1.796,1.795,1.7963,1.7963,1.7986,1.7987,1.7987]}]]